Location: Newark
(48.1281°N, 2.1556°W)
Time: 04:35:48
(UTC+00:00)

Envisat - Pass Details

Date: 29 November 2019
Orbit: 764 x 766 km, 98.1° (Epoch: 06 December)

Event Time Altitude Azimuth Distance (km) Brightness Sun altitude
Rises 17:44:54 0° 158° (SSE) 3,219 6.2 -13.9°
Reaches altitude 10° 17:47:12 10° 156° (SSE) 2,297 5.4 -14.3°
Maximum altitude 17:52:14 73° 73° (ENE) 805 2.9 -15.1°
Drops below altitude 10° 17:57:19 10° 350° (N) 2,313 5.4 -15.9°
Sets 17:59:38 0° 348° (NNW) 3,244 6.2 -16.3°
